www.pogodaiklimat.ru

Погода и климат >> Архив погоды >> Мальдивы >> Kaadedhdhoo


ПОГОДА в Kaadedhdhoo

  • Прогноз погоды в Kaadedhdhoo
  • Монитор погоды в Kaadedhdhoo
  • Климат города

АРХИВ ПОГОДЫ в Kaadedhdhoo

Время (UTC), дата Ветер
(напр.,м/с)
 
Видим.   Явления Облачность Т
(С)
Тd
(С)
f
(%)
Тe
(С)
Тes
(С)
Комфортность P
(гПа)
Po
(гПа)
Тmin
(С)
Tmax
(С)
R
(мм)
R24
(мм)
S
(см)
06 8.08 ЮЗ 4 15 км 9/3 540 м
[Cu hum Ac trans Cs]
+30.3 +24.9 73 +43 +49 опасность
перегрева
1011.2 1011.1
09 8.08 З 3 15 км 8/3 540 м
[Cu med, cong Ac trans Cs]
+30.2 +25.1 74 +44 +50 опасность
перегрева
1009.3 1009.2
12 8.08 ЮЗ 3 15 км 5/3 540 м
[Cu med, cong Ci sp]
+29.5 +24.5 75 +42 +43 опасность
перегрева
1009.4 1009.3 +30.9
15 8.08 ЮЗ 2 15 км 6/3 540 м
[Cu med, cong Ci sp]
+27.6 +24.1 81 +38 +38 очень
душно
1011.3 1011.2
18 8.08 нст 1 15 км 6/3 540 м
[Cu med, cong Ci sp]
+26.6 +24.3 87 +37 +37 очень
душно
1011.8 1011.7
21 8.08 ЮЗ 2 15 км 6/3 540 м
[Cu med, cong Ci sp]
+25.9 +24.5 92 +36 +36 очень
душно
1010.5 1010.4
00 9.08 штиль 0 15 км 8/3 540 м
[Cu med, cong Ci sp]
+24.9 +24.2 96 +34 +34 очень
душно
1010.3 1010.2
03 9.08 Ю 2 15 км 6/3 540 м
[Cu med, cong Ci sp]
+28.5 +24.5 79 +40 +43 очень
душно
1012.2 1012.1 +24.0
06 9.08 З 2 15 км 8/4 540 м
[Cu med, cong Ci sp]
+29.7 +25.0 76 +43 +53 опасность
перегрева
1012.4 1012.3
09 9.08 З 2 15 км 8/4 540 м
[Cu med, cong Ci sp]
+30.6 +25.5 74 +45 +53 опасность
перегрева
1010.6 1010.5
12 9.08 Ю 2 15 км 9/5 540 м
[Cb cap Ac trans Cs]
+29.0 +25.0 79 +42 +42 опасность
перегрева
1010.7 1010.6 +31.2
15 9.08 Ю 3 15 км {ливн. осадки} 9/3 540 м
[Cu med, cong Ac trans Cs]
+28.0 +24.4 81 +39 +39 очень
душно
1012.8 1012.7
18 9.08 Ю 2 15 км {ливн. осадки} 9/3 540 м
[Cu med, cong Ac trans Cs]
+27.2 +24.3 84 +38 +38 очень
душно
1013.8 1013.7 0.0
21 9.08 нст 1 15 км 9/3 540 м
[Cu med, cong Ac trans Cs]
+26.0 +24.6 92 +37 +37 очень
душно
1011.9 1011.8
00 10.08 штиль 0 15 км 9/3 540 м
[Cu med, cong Ci sp]
+24.5 +23.9 96 +33 +33 очень
душно
1011.8 1011.7 0.0
03 10.08 Ю 2 15 км 6/3 540 м
[Cu med, cong Ci sp]
+28.4 +24.4 79 +40 +43 очень
душно
1013.3 1013.2 +24.0
06 10.08 ЮЗ 3 15 км 5/3 540 м
[Cu med, cong Ci sp]
+29.8 +24.7 74 +42 +54 опасность
перегрева
1014.1 1014.0
12 10.08 ЮЗ 2 15 км 5/1 540 м
[Cu med, cong Ac trans Ci fib]
+29.6 +24.1 72 +41 +42 опасность
перегрева
1011.7 1011.6 +30.6
15 10.08 штиль 0 15 км 5/1 540 м
[Cu med, cong Ci fib]
+26.5 +24.8 90 +38 +38 очень
душно
1013.1 1013.0
18 10.08 Ю 2 15 км 5/3 540 м
[Cu med, cong Ci fib]
+25.8 +24.9 95 +37 +37 очень
душно
1014.8 1014.7
21 10.08 Ю 2 15 км 8/3 540 м
[Cu med, cong Ci sp]
+27.0 +24.4 86 +38 +38 очень
душно
1013.1 1013.0
03 11.08 Ю 4 15 км 8/3 540 м
[Cu med, cong Ci sp]
+28.8 +24.8 79 +41 +43 опасность
перегрева
1013.6 1013.5 +25.0
06 11.08 Ю 3 15 км 9/3 540 м
[Cu med, cong Cs]
+29.5 +24.8 76 +42 +51 опасность
перегрева
1013.6 1013.5
09 11.08 Ю 5 15 км 9/3 540 м
[Cu med, cong Cs]
+30.0 +24.7 73 +43 +48 опасность
перегрева
1011.6 1011.5
12 11.08 Ю 3 15 км 9/3 540 м
[Cu med, cong Cs]
+29.0 +24.0 74 +40 +41 очень
душно
1011.1 1011.0 +30.7
15 11.08 Ю 3 15 км 9/3 540 м
[Cu med, cong Cs]
+27.9 +24.0 79 +39 +39 очень
душно
1012.9 1012.8
18 11.08 Ю 2 15 км 9/3 540 м
[Cu med, cong Cs]
+26.8 +24.0 85 +37 +37 очень
душно
1013.9 1013.8
21 11.08 Ю 3 15 км 9/3 540 м
[Cu med, cong Cs]
+26.9 +24.3 86 +38 +38 очень
душно
1011.7 1011.6
00 12.08 Ю 4 15 км 9/3 540 м
[Cu med, cong Ci sp]
+27.4 +24.5 84 +39 +39 очень
душно
1010.6 1010.5
03 12.08 Ю 5 15 км 6/3 540 м
[Cu med, cong Ci sp]
+29.0 +24.7 78 +41 +43 опасность
перегрева
1011.8 1011.7 +26.1
06 12.08 Ю 6 15 км 9/5 540 м
[Cb cap Ci sp]
+30.0 +25.0 75 +43 +47 опасность
перегрева
1012.6 1012.5
09 12.08 Ю 5 15 км {ливн. осадки} 8/3 540 м
[Cu med, cong Ac trans Ci sp]
+30.4 +25.6 76 +45 +49 опасность
перегрева
1010.3 1010.2
12 12.08 Ю 4 10 км {ливн. осадки} 9/5 500 м
[Cb cap Ci sp]
+28.8 +24.8 79 +41 +42 опасность
перегрева
1009.5 1009.4 +30.8 5
15 12.08 Ю 5 12 км зарница {ливн. осадки} 9/4 500 м
[Cb cap Ac trans Cs]
+27.6 +25.3 87 +40 +40 очень
душно
1011.3 1011.2
18 12.08 Ю 4 12 км зарница {ливн. осадки} 9/5 500 м
[Cb cap Ac trans Cs]
+28.0 +25.2 85 +41 +41 опасность
перегрева
1012.4 1012.3 2
21 12.08 Ю 6 12 км 9/4 540 м
[Cb cap Ac trans]
+27.8 +24.9 84 +40 +40 очень
душно
1010.5 1010.4
00 13.08 Ю 5 12 км 9/3 540 м
[Cu med, cong Ac trans Cs]
+28.0 +24.6 82 +40 +40 очень
душно
1010.0 1009.9 2
03 13.08 Ю 6 12 км 9/3 540 м
[Cu med, cong Ac trans Cs]
+29.0 +25.3 80 +42 +43 опасность
перегрева
1011.4 1011.3 +25.4
06 13.08 Ю 6 12 км 9/3 540 м
[Cu med, cong Ac trans Cs]
+29.0 +25.3 80 +42 +46 опасность
перегрева
1011.4 1011.3 +25.4
12 13.08 Ю 6 12 км {ливн. осадки} 9/4 500 м
[Cb cap Ac trans Cs]
+28.9 +25.7 83 +43 +43 опасность
перегрева
1009.3 1009.2 +31.2 5
15 13.08 Ю 7 8000 м слабый ливневой дождь 9/4 500 м
[Cb cap Ac trans]
+28.1 +26.1 89 +42 +42 опасность
перегрева
1011.4 1011.3
18 13.08 Ю 8 12 км зарница {ливн. осадки} 9/4 500 м
[Cb cap Ac As]
+27.3 +25.3 89 +40 +40 очень
душно
1012.2 1012.1 0.0
21 13.08 Ю 6 12 км зарница 9/4 500 м
[Cb cap Ac As]
+27.2 +23.9 82 +37 +37 очень
душно
1010.2 1010.1
00 14.08 Ю 8 12 км {ливн. осадки} 9/3 500 м
[Cb cap Ac trans Ci sp]
+28.0 +23.8 78 +39 +39 очень
душно
1009.5 1009.4 0.0
03 14.08 Ю 6 12 км 9/3 540 м
[Cu med, cong Ac trans Ci sp]
+28.9 +23.1 71 +39 +39 очень
душно
1011.4 1011.3 +25.8
06 14.08 Ю 7 12 км 9/3 540 м
[Cu med, cong Ac trans Cs]
+30.4 +25.0 73 +44 +46 опасность
перегрева
1011.9 1011.8
09 14.08 Ю 5 12 км 10/3 540 м
[Cu med, cong Ac trans Cs]
+30.4 +25.0 73 +44 +47 опасность
перегрева
1010.0 1009.9
12 14.08 Ю 4 12 км 10/3 540 м
[Cu med, cong Ac trans Cs]
+29.0 +24.7 78 +41 +42 опасность
перегрева
1010.2 1010.1 +31.2
15 14.08 Ю 4 12 км зарница 10/4 540 м
[Cb cap Ac trans Cs]
+28.4 +25.0 82 +41 +41 опасность
перегрева
1011.2 1011.1
18 14.08 Ю 6 10 км 10/5 500 м
[Cb cap Ac trans Cs]
+28.2 +25.1 83 +41 +41 опасность
перегрева
1011.9 1011.8
21 14.08 Ю 6 12 км 9/4 540 м
[Cu med, cong Ac trans Cs]
+27.8 +25.2 86 +40 +40 очень
душно
1010.5 1010.4
00 15.08 Ю 6 12 км 9/3 540 м
[Cu med, cong Ac cuf Cs]
+27.6 +24.7 84 +39 +39 очень
душно
1010.1 1010.0
03 15.08 Ю 4 12 км 9/3 540 м
[Cu med, cong Ac trans Cs]
+29.0 +25.5 81 +43 +44 опасность
перегрева
1011.4 1011.3 +26.7

 

Местоположение метеостанции Kaadedhdhoo (Мальдивы): широта 0.48 долгота 72.98 высота над уровнем моря 2 м.

В архиве по умолчанию представлена погода в Kaadedhdhoo за последнюю неделю. Архивные данные за месяц целиком и за предыдущие месяцы, начиная с января 2011 года, Вы можете получить, выбрав интересующий диапазон дат из раскрывающегося списка и нажав кнопку "Ввод!".


*Определитесь, кто Вы:
робот инопланетянин человек

Внимание! Время в таблицах - всемирное. Для получения местного времени необходимо прибавить поправку, которая в Kaadedhdhoo равна 5 ч.

Смотрите также архив погоды в соседних городах и на ближайших метеорологических станциях:

Погода в Gan (Мальдивы) (130 км)
Погода в Kadhdhoo (Мальдивы) (166 км)
Погода в Male (Мальдивы) (418 км)
Погода в Hanimaadhoo (Мальдивы) (695 км)
Погода в Minicoy (Lakshadweep, Индия) (870 км)
Погода в Kanyakumari (Tamil Nadu, Индия) (983 км)
Погода в Thiruvananthapuram Air (Kerala, Индия) (992 км)
Погода в Thiruvananthapuram (Kerala, Индия) (993 км)
Погода в Galle (Шри Ланка) (1013 км)
Погода в Ratmalana (Шри Ланка) (1041 км)

Пояснения к столбцам:

Ветер - указаны скорость ветра в м/с - средняя за 10 мин, порывы в срок и между сроками (в фигурных скобках) и направление, откуда дует ветер: С - северный, СВ - северо-восточный, В - восточный, ЮВ - юго-восточный, Ю - южный, ЮЗ - юго-западный, З - западный, СЗ - северо-западный.
Видимость - горизонтальная дальность видимости в метрах или километрах. При видимости от 1 до 10 км при отсутствии осадков обычно наблюдается дымка, при ухудшении видимости до 1 км и менее - туман. В сухую погоду видимость может ухудшаться дымом, пылью или мглою.
Явления - указаны атмосферные явления, наблюдавшиеся в срок или в последний час перед сроком; фигурными скобками обозначены явления, наблюдавшиеся между сроками (за 1-3 часа до срока); квадратными скобками обозначены град или гололедные отложения с указанием их диаметра в мм.
Облачность - указаны через наклонную черту общая и нижняя облачность в баллах и высота нижней границы облаков в метрах; квадратными скобками обозначены формы облаков: Ci - перистые, Cs - перисто-слоистые, Cc - перисто-кучевые, Ac - высококучевые, As - высокослоистые, Sc - слоисто-кучевые, Ns - слоисто-дождевые, Cu - кучевые, Cb - кучево-дождевые. Подробнее классификацию облаков см. в Атласе облаков (PDF).
T - Температура воздуха - температура, измеренная на высоте 2 м над землей.
Td - Температура точки росы - температура, при понижении до которой содержащийся в воздухе водяной пар достигнет насыщения.
f - Относительная влажность воздуха - влажноcть воздуха, измеренная на высоте 2 м над землей.
Te - Эффективная температура - температура, которую ощущает одетый по сезону человек в тени. Характеристика душности погоды. При расчете учитывается влияние влажности воздуха и скорости ветра на теплоощущения человека.
Tes - Эффективная температура на солнце - температура, которую ощущает человек, с поправкой на солнечный нагрев. Характеристика знойности погоды. Зависит от высоты солнца над горизонтом, облачности и скорости ветра. Ночью, в пасмурную погоду, а также при ветре 12 м/с и более поправка равна нулю.
P - Атмосферное давление - приведенное к уровню моря атмосферное давление.
Po - Атмосферное давление - измеренное на уровне метеостанции атмосферное давление.
Tmin - Минимальная температура - минимум температуры воздуха на высоте 2 м над землей.
Tmax - Максимальная температура - максимум температуры воздуха на высоте 2 м над землей.
R - Количество осадков - Количество выпавших осадков за период времени, мм. При наведении курсора мыши на число - период времени, за который выпало указанное количество осадков.
R24 - Количество осадков - Количество выпавших осадков за 24 часа, мм.
S - Снежный покров - Высота снежного покрова, см. При наведении курсора мыши на число - состояние снежного покрова и степень покрытия местности в баллах.